Location: Wik
(54.3556°N, 10.1350°E)
Time: 11:04:25
(UTC+02:00)

ISS - Visible Passes

Search period start: 21 May 2019 00:00
Search period end: 31 May 2019 00:00
Orbit: 407 x 410 km, 51.6° (Epoch: 21 May)

Date Brightness Start Highest point End Pass type
(mag) Time Alt. Az. Time Alt. Az. Time Alt. Az.
21 May -3.8 00:24:40 10° WSW 00:27:55 53° S 00:31:10 10° ESE visible
21 May -3.3 02:01:08 10° W 02:04:12 35° SSW 02:04:32 34° S visible
21 May -3.7 23:33:49 10° WSW 23:37:02 50° S 23:40:16 10° E visible
22 May -3.5 01:10:12 10° W 01:13:22 43° SSW 01:14:14 34° SSE visible
22 May -3.5 22:42:58 10° WSW 22:46:09 44° SSE 22:49:20 10° E visible
23 May -3.7 00:19:16 10° W 00:22:29 50° S 00:24:32 20° ESE visible
23 May -2.0 01:55:55 10° W 01:57:13 18° WSW 01:57:13 18° WSW visible
23 May -3.7 23:28:20 10° W 23:31:34 53° S 23:34:49 10° ESE visible
24 May -3.0 01:04:51 10° W 01:07:41 31° SSW 01:07:41 31° SSW visible
24 May -3.6 22:37:26 10° WSW 22:40:40 52° S 22:43:54 10° E visible
25 May -3.3 00:13:51 10° W 00:16:59 39° SSW 00:18:12 27° SSE visible
25 May -3.5 23:22:52 10° W 23:26:04 47° S 23:28:46 13° ESE visible
26 May -2.1 00:59:39 10° W 01:01:29 19° SW 01:01:29 19° SW visible
26 May -3.6 22:31:55 10° W 22:35:08 52° S 22:38:22 10° ESE visible
27 May -2.7 00:08:29 10° W 00:11:21 27° SSW 00:12:04 25° S visible
27 May -3.0 23:17:24 10° W 23:20:28 35° SSW 23:22:41 16° SE visible
28 May -1.4 00:54:59 10° WSW 00:55:24 11° SW 00:55:24 11° SW visible
28 May -3.3 22:26:23 10° W 22:29:33 43° SSW 22:32:42 10° ESE visible
29 May -2.0 00:03:18 10° WSW 00:05:35 17° SSW 00:06:01 17° SSW visible
29 May -2.4 23:12:01 10° W 23:14:44 24° SSW 23:16:41 14° SSE visible
